Location: Bagnara
(41.0500°N, 14.7833°E)
Time: 14:35:07
(UTC+00:00)

Lacrosse 4 Rocket - Pass Details

Date: 20 June 2021
Orbit: 543 x 614 km, 68.0° (Epoch: 04 August)

Event Time Altitude Azimuth Distance (km) Brightness Sun altitude
Rises 01:11:01 0° 332° (NNW) 2,736 5.3 -18.9°
Reaches altitude 10° 01:13:14 10° 333° (NNW) 1,830 4.4 -18.7°
Maximum altitude 01:17:20 85° 63° (ENE) 552 1.2 -18.3°
Enters shadow 01:20:10 19° 151° (SSE) 1,331 3.0 -18.0°
